Estación Meteorológica Peña el Pijo (Robertgarden) [ 07/11/20 21:31:04 CEST ]

Fecha Hora Presion(HPa) Temp (°C) Humedad % Rocio (°C) Viento ( m/s) Direccion Lluvia 1Hora(mm) Lluvia 24H(mm) LLuvia Total(mm)
2020-Mar-04 01:09:06 1010.400 - - - - N     39.88
2020-Mar-04 02:10:39 1010.700 - - - - N     39.88
2020-Mar-04 03:10:47 1010.600 - - - - N     39.88
2020-Mar-04 04:09:32 1010.600 - - - - N     39.88
2020-Mar-04 05:09:31 1010.500 - - - - N     39.88
2020-Mar-04 06:09:53 1010.300 - - - - N     39.88
2020-Mar-04 07:08:58 1010.400 - - - - N     39.88
2020-Mar-04 08:08:51 1010.500 - - - - N     39.88
2020-Mar-04 09:08:58 1010.700 - - - - N     39.88
2020-Mar-04 10:09:03 1011.100 - - - - N     39.88
2020-Mar-04 11:09:14 1011.500 - - - - N     39.88
2020-Mar-04 12:09:34 1011.300 - - - - N     39.88
2020-Mar-04 13:09:23 1010.900 - - - - N     39.88
2020-Mar-04 14:09:12 1010.500 - - - - N     39.88
2020-Mar-04 15:09:32 1010.000 - - - - N     39.88
2020-Mar-04 16:09:32 1009.500 - - - - N     39.88
2020-Mar-04 17:08:44 1009.500 - - - - N     39.88
2020-Mar-04 18:09:06 1009.500 - - - - N     39.88
2020-Mar-04 19:08:53 1010.000 - - - - N     39.88
2020-Mar-04 20:09:13 1010.000 - - - - N     39.88
2020-Mar-04 21:09:05 1009.900 - - - - N     39.88
2020-Mar-04 22:09:25 1009.500 - - - - N     39.88
2020-Mar-04 23:09:06 1009.500 - - - - N     39.88

Temperatura Máxima:    Temperatura Mínima:
Presión Máxima:1011.500 Hpa    Presión Mínima:1009.500 Hpa


Volver